Regional Weather Roundup
Issued by NWS

Home | Current Version | Previous Version | Text Only | Print | Product List | Glossary On
Versions: 1 2 3 4 5 6 7 8 9 10 11 12 13 14 15 16 17 18 19 20 21 22 23 24 25 26 27 28 29 30 31 32 33 34 35 36 37 38 39 40 41 42 43 44 45 46 47 48 49 50
000
ASUS45 KABQ 232210
RWRNM
WEATHER ROUNDUP FOR NEW MEXICO
NATIONAL WEATHER SERVICE ALBUQUERQUE NM
400 PM MDT THU OCT 23 2014

NOTE: "FAIR" MEANS FEW OR NO CLOUDS BELOW 12,000 FEET AGL WITH NO
       SIGNIFICANT WEATHER OR OBSTRUCTIONS TO VISION.

      THIS PRODUCT IS RELEASED AS TWO VERSIONS.  ONE VERSION NEAR
      THE TOP OF THE HOUR CONTAINING PRELIMINARY DATA FROM ALBUQUERQUE
      AND OTHER STATIONS.  A FINAL VERSION WITH ADDITIONAL DATA IS
      ISSUED ABOUT 10 MINUTES AFTER THE HOUR.

NMZ501-503-504-510>518-232300-
NORTHWEST PLATEAU/NORTHCENTRAL MOUNTAINS

CITY           SKY/WX    TMP DP  RH WIND       PRES   REMARKS
FARMINGTON     SUNNY     72  31  22 W3        30.21F
LOS ALAMOS     SUNNY     65  32  28 CALM      30.29S
SANTA FE       SUNNY     72  32  23 W12       30.22F
TAOS           SUNNY     66  28  24 CALM      30.27F
ANGEL FIRE     FAIR      63  21  19 SW13      30.32F

$$
NMZ402-403-502-505>509-232300-
WESTCENTRAL MOUNTAINS/SOUTHWEST MOUNTAINS

CITY           SKY/WX    TMP DP  RH WIND       PRES   REMARKS
GALLUP         SUNNY     71  31  22 VRB3      30.27F
GRANTS         SUNNY     72  27  18 N5        30.27F
SILVER CITY    SUNNY     75  41  29 S9        30.23F

$$
NMZ407-409-411-412-232300-
SOUTHERN DESERTS

CITY           SKY/WX    TMP DP  RH WIND       PRES   REMARKS
LORDSBURG      FAIR      77  43  29 MISG      30.15S
DEMING         SUNNY     78  48  34 E3        30.15F
LAS CRUCES     SUNNY     77  47  34 CALM      30.17F
HOLLOMAN AFB   SUNNY     78  45  30 VRB5      30.13F
T OR C         SUNNY     77  38  24 SE6       30.16F

$$
NMZ519>523-232300-
CENTRAL VALLEYS/CENTRAL HIGHLANDS

CITY           SKY/WX    TMP DP  RH WIND       PRES   REMARKS
ALBUQUERQUE    MOSUNNY   74  35  24 W7        30.20F
DOUBLE EAGLE   SUNNY     73  36  25 W3        30.23F
MORIARTY ARPT  FAIR      73  32  21 W14       30.23S
CLINES CORNERS SUNNY     70  27  20 NW17G28   30.24F
BELEN          FAIR      76  35  22 NW6       30.19S
SOCORRO        FAIR      76  38  26 CALM      30.17S

$$
NMZ524>526-539-540-232300-
SOUTHCENTRAL MOUNTAINS

CITY           SKY/WX    TMP DP  RH WIND       PRES   REMARKS
RUIDOSO        SUNNY     68  36  30 NW20G25   30.29S

$$
NMZ527>531-232300-
NORTHEAST HIGHLANDS/NORTHEAST PLAINS

CITY           SKY/WX    TMP DP  RH WIND       PRES   REMARKS
LAS VEGAS      SUNNY     72  25  17 W7        30.22S
RATON          SUNNY     73  29  19 S8        30.16F
CLAYTON        SUNNY     74  45  35 VRB7      30.13S

$$
NMZ532>537-232300-
EASTCENTRAL PLAINS

CITY           SKY/WX    TMP DP  RH WIND       PRES   REMARKS
TUCUMCARI      SUNNY     82  32  16 CALM      30.06F
CANNON AFB     SUNNY     80  41  24 W17G26    30.10S
CLOVIS AIRPORT SUNNY     81  39  22 W16G22    30.11F

$$
NMZ028-029-538-232300-
SOUTHEAST PLAINS

CITY           SKY/WX    TMP DP  RH WIND       PRES   REMARKS
ROSWELL        SUNNY     79  54  41 S9        30.09S
CARLSBAD       SUNNY     76  59  55 SE8       30.08F
HOBBS          MOSUNNY   77  50  38 S5        30.11F


$$



USA.gov is the U.S. government's official web portal to all federal, state and local government web resources and services.